Orbital Elements at Epoch 2459200.5 (2020-Dec-17.0) TDB
Reference: JPL 20 (heliocentric ecliptic J2000)
Element | Value | Uncertainty (1-sigma) | Units |
e | .2048258694343247 | 3.8291e-08 | |
a | 2.428253019156583 | 1.1082e-08 | au |
q | 1.930883983301312 | 9.0825e-08 | au |
i | .4768768858842841 | 4.2536e-06 | deg |
node | 191.0899311856897 | 0.00044226 | deg |
peri | 146.7017793917525 | 0.00044239 | deg |
M | 264.8715925479634 | 1.4518e-05 | deg |
tp | 2459565.713698237967 (2021-Dec-17.21369824) | 5.763e-05 | TDB |
period | 1382.099573483958 3.78 | 9.461e-06 2.59e-08 | d yr |
n | .2604732733492726 | 1.783e-09 | deg/d |
Q | 2.925622055011854 | 1.3351e-08 | au |
|
| | Orbit Determination Parameters
Additional Information
|